Total_Precipitation_Accumulation
0.82 0.85 0.79 0.83 0.75 0.73 0.82 0.88 0.89 0.91 0.82 0.70 0.66 0.65 0.72 0.67 0.65 0.71 0.88 1.07 1.42 1.69 1.76 1.57 1.38 1.28 1.23 1.23 1.42 1.64 1.95 2.12 1.97 1.88 1.70 1.59 1.79 1.88 1.49 1.38 1.39 1.35 1.43
0.87 0.92 0.87 0.86 0.84 0.77 0.80 0.97 0.90 0.95 0.94 0.88 0.73 0.69 0.72 0.69 0.66 0.69 0.80 1.04 1.22 1.38 1.67 1.84 1.67 1.48 1.32 1.29 1.39 1.62 1.98 2.05 1.79 1.74 1.72 1.66 1.83 1.89 1.57 1.43 1.35 1.24 1.36
0.82 0.86 0.87 0.85 0.84 0.85 0.84 0.90 0.92 0.99 0.92 0.86 0.82 0.77 0.74 0.70 0.62 0.68 0.70 0.80 0.81 0.96 1.24 1.54 1.70 1.63 1.54 1.49 1.50 1.71 1.97 1.94 1.71 1.69 1.74 1.70 1.68 1.74 1.70 1.53 1.38 1.26 1.30
0.89 0.89 0.93 0.94 0.98 1.02 0.99 1.00 1.03 1.06 1.02 1.01 0.99 0.96 0.79 0.79 0.70 0.70 0.69 0.71 0.77 0.74 0.86 1.01 1.25 1.45 1.63 1.72 1.86 2.06 1.98 1.82 1.63 1.60 1.73 1.66 1.59 1.67 1.70 1.62 1.39 1.29 1.26
0.95 1.06 1.09 1.14 1.12 1.14 1.16 1.12 1.13 1.07 1.08 1.09 1.02 1.00 0.90 0.88 0.83 0.71 0.78 0.80 0.80 0.76 0.79 0.70 0.76 0.87 1.14 1.49 1.98 2.27 2.00 1.85 1.72 1.61 1.62 1.59 1.63 1.75 1.71 1.52 1.34 1.23 1.23
1.25 1.40 1.48 1.42 1.41 1.42 1.42 1.36 1.44 1.33 1.15 1.15 1.08 1.02 0.92 0.83 0.89 0.87 0.85 0.85 0.89 0.86 0.80 0.70 0.66 0.55 0.65 1.01 1.59 2.03 1.98 1.91 1.78 1.73 1.65 1.62 1.70 1.77 1.68 1.54 1.40 1.36 1.32
1.63 1.75 1.69 1.77 1.79 1.67 1.67 1.72 1.77 1.71 1.45 1.32 1.40 1.30 1.03 0.80 0.87 0.86 0.83 0.88 0.94 1.04 1.07 0.94 0.79 0.71 0.66 0.73 1.06 1.56 1.90 1.96 1.99 1.86 1.75 1.73 1.70 1.68 1.66 1.60 1.59 1.53 1.47
1.85 1.89 1.98 2.05 2.09 2.08 2.04 1.93 2.00 2.10 1.83 1.62 1.74 2.03 1.63 1.22 0.88 0.71 0.80 0.84 0.94 1.18 1.24 1.07 0.87 0.80 0.79 0.84 0.73 0.98 1.38 1.82 2.01 2.02 1.92 1.86 1.84 1.85 1.79 1.60 1.54 1.57 1.58
2.08 2.11 2.17 2.23 2.24 2.10 2.09 2.18 2.27 2.60 2.41 2.06 1.88 2.14 1.95 1.62 1.32 0.91 0.84 0.89 0.97 1.14 1.27 1.28 1.16 1.09 0.99 0.98 0.91 0.72 0.87 1.31 1.71 2.01 2.07 2.00 1.90 2.06 2.14 1.83 1.56 1.48 1.44
2.01 2.13 2.14 2.14 2.11 2.05 2.12 2.18 2.21 2.59 2.77 2.48 2.16 1.83 1.62 1.59 1.66 1.36 1.00 0.95 1.03 1.06 1.17 1.24 1.19 1.25 1.22 1.20 1.15 0.86 0.77 1.02 1.35 1.81 2.14 2.32 2.11 1.92 1.89 1.88 1.75 1.56 1.37
1.88 1.91 1.93 2.02 2.05 2.10 2.15 2.31 2.41 2.63 2.66 2.67 2.49 2.31 2.10 1.81 1.47 1.50 1.43 1.18 1.14 1.06 1.15 1.27 1.31 1.39 1.40 1.40 1.49 1.18 0.90 0.82 1.01 1.45 1.96 2.37 2.39 2.19 1.97 1.84 1.78 1.74 1.50
1.86 1.79 1.76 1.83 1.95 2.11 2.17 2.25 2.39 2.62 2.72 2.80 2.74 2.48 2.39 2.22 1.93 1.80 1.55 1.40 1.40 1.21 1.18 1.21 1.25 1.38 1.51 1.57 1.50 1.57 1.26 0.88 0.80 1.08 1.42 1.88 2.30 2.45 2.37 2.23 2.09 2.04 1.86
1.57 1.59 1.67 1.76 1.89 2.01 2.10 2.21 2.35 2.39 2.50 2.74 2.75 2.59 2.38 2.17 2.14 2.04 1.92 1.61 1.44 1.27 1.25 1.24 1.19 1.24 1.26 1.51 1.62 1.68 1.37 1.04 0.80 0.81 0.96 1.14 1.48 1.95 2.34 2.42 2.38 2.43 2.41
1.46 1.40 1.44 1.54 1.77 1.97 2.05 2.15 2.16 2.13 2.18 2.37 2.37 2.44 2.41 2.12 2.06 1.97 1.96 2.04 1.76 1.57 1.41 1.23 1.12 1.15 1.18 1.37 1.65 1.73 1.30 1.12 0.91 0.79 0.82 0.94 1.00 1.17 1.56 2.10 2.39 2.50 2.65
1.27 1.21 1.23 1.27 1.40 1.63 1.89 2.05 1.99 1.91 1.87 2.03 2.10 2.19 2.30 2.31 2.23 2.13 2.10 2.15 2.09 1.84 1.64 1.43 1.21 1.09 1.15 1.25 1.64 1.59 1.38 1.20 1.08 0.92 0.85 0.90 0.88 0.92 1.04 1.33 1.63 1.77 1.94
1.07 1.07 1.07 1.12 1.25 1.36 1.57 1.80 1.90 1.84 1.81 1.86 1.97 2.10 2.23 2.33 2.38 2.19 2.15 2.12 1.98 1.88 1.72 1.42 1.21 1.12 1.19 1.17 1.50 1.53 1.49 1.47 1.23 1.07 0.99 0.96 0.96 0.89 0.90 1.03 1.11 1.14 1.10
0.84 0.87 1.04 1.09 1.16 1.24 1.41 1.67 1.85 1.86 1.78 1.79 1.78 1.86 2.03 2.12 2.34 2.31 2.23 2.12 1.99 1.82 1.68 1.52 1.31 1.15 1.20 1.25 1.35 1.46 1.48 1.38 1.19 1.14 1.02 0.97 0.95 0.94 0.91 0.97 1.09 1.02 0.91
0.60 0.71 0.84 0.89 0.93 0.98 1.17 1.46 1.66 1.69 1.66 1.57 1.56 1.68 1.91 2.08 2.29 2.39 2.34 2.20 2.11 1.98 1.85 1.78 1.60 1.39 1.28 1.31 1.40 1.52 1.52 1.45 1.36 1.34 1.20 1.08 1.01 0.95 0.94 0.93 0.99 1.07 1.01
0.63 0.75 0.84 0.89 0.91 0.97 1.00 1.10 1.26 1.38 1.36 1.31 1.34 1.41 1.47 1.67 1.96 2.14 2.16 2.18 2.21 2.19 2.14 1.98 1.77 1.64 1.50 1.39 1.46 1.51 1.51 1.57 1.44 1.43 1.40 1.31 1.24 1.16 1.07 1.01 0.99 1.01 1.05
0.59 0.68 0.75 0.81 0.89 0.94 0.95 0.95 0.97 1.04 1.05 1.10 1.16 1.21 1.26 1.30 1.53 1.72 1.81 2.00 2.23 2.24 2.25 2.18 1.96 1.78 1.65 1.52 1.58 1.67 1.75 1.74 1.58 1.37 1.36 1.30 1.34 1.30 1.19 1.03 0.96 0.96 1.00
0.50 0.57 0.64 0.68 0.74 0.83 0.92 0.94 0.81 0.77 0.83 0.94 0.97 0.95 0.97 1.04 1.18 1.28 1.36 1.72 2.06 2.24 2.23 2.18 2.05 1.94 1.69 1.56 1.42 1.43 1.65 1.90 1.87 1.76 1.64 1.39 1.34 1.26 1.19 1.13 1.02 0.96 0.97
0.47 0.52 0.52 0.56 0.67 0.71 0.85 0.84 0.67 0.64 0.67 0.77 0.86 0.86 0.76 0.75 0.80 0.87 0.95 1.13 1.41 1.66 1.94 2.12 2.04 1.85 1.64 1.53 1.48 1.50 1.55 1.69 1.83 1.73 1.76 1.74 1.65 1.59 1.49 1.35 1.32 1.23 1.13
0.44 0.46 0.46 0.47 0.53 0.67 0.72 0.57 0.55 0.57 0.63 0.69 0.75 0.81 0.74 0.64 0.71 0.75 0.85 0.92 0.94 1.02 1.31 1.66 1.78 1.73 1.80 1.68 1.63 1.56 1.54 1.61 1.66 1.63 1.77 1.83 1.79 1.74 1.66 1.63 1.71 1.56 1.38
0.52 0.51 0.52 0.52 0.51 0.58 0.57 0.47 0.50 0.52 0.57 0.62 0.70 0.79 0.85 0.77 0.77 0.87 0.87 0.90 0.86 0.83 1.02 1.04 1.20 1.49 1.67 1.76 1.73 1.81 1.97 1.94 1.79 1.66 1.61 1.67 1.59 1.57 1.58 1.58 1.68 1.61 1.50
0.50 0.53 0.56 0.57 0.52 0.50 0.51 0.44 0.45 0.52 0.56 0.61 0.62 0.68 0.76 0.74 0.88 0.96 0.97 1.10 1.08 0.96 1.08 1.14 1.17 1.20 1.32 1.48 1.61 1.69 1.77 1.84 1.81 1.70 1.51 1.38 1.34 1.33 1.39 1.40 1.41 1.48 1.47
0.29 0.39 0.42 0.45 0.48 0.48 0.59 0.48 0.48 0.51 0.60 0.70 0.71 0.69 0.82 0.82 0.89 0.88 0.87 1.10 1.12 1.00 0.92 0.99 0.99 0.97 0.91 1.01 1.23 1.40 1.61 1.71 1.69 1.60 1.36 1.22 1.19 1.22 1.22 1.08 1.00 1.05 1.06